Huntsville Madison, AL

8:55 PM CDT on April 29, 2017 (GMT -0500)
Huntsville Madison

Weather History for KMDQ - January, 2005

Change the Weather History Date:

Saturday, January 1, 2005

  Actual Average (KHSV) Record (KHSV)
Temperature  
Mean Temperature 55 °F -  
Max Temperature 68 °F 48 °F 79 °F (1952)
Min Temperature 42 °F 30 °F 7 °F (1977)
Degree Days  
Heating Degree Days 10    
Growing Degree Days 5 (Base 50)    
Moisture  
Dew Point 49 °F    
Average Humidity 76    
Maximum Humidity 100    
Minimum Humidity 56    
Precipitation  
Precipitation 0.00 in - - ()
Sea Level Pressure  
Sea Level Pressure 30.38 in    
Wind  
Wind Speed 3 mph (SSE)    
Max Wind Speed 9 mph    
Max Gust Speed -    
Visibility 9 miles    
Events Fog    
Averages and records for this station are not official NWS values.
T = Trace of Precipitation, MM = Missing Value Source: NWS Daily Summary

Daily Weather History Graph

Daily Weather History Graph

Search for Another Location

Airport or City:

Trip Planner

Search our weather history database for the weather conditions in past years. The results will help you decide how hot, cold, wet, or windy it might be!

Date:

Astronomy

Jan. 01, 2005 Rise Set
Actual Time 6:53 AM CST 4:46 PM CST
Civil Twilight 6:25 AM CST 5:14 PM CST
Nautical Twilight 5:54 AM CST 5:45 PM CST
Astronomical Twilight 5:23 AM CST 6:16 PM CST
Moon 10:25 PM CST (1/1) 10:41 AM CST (1/1)
Length of Visible Light 10h 48m
Length of Day
9h 52m
Waning Gibbous, 69% of the Moon is Illuminated
Jan 1
Waning Gibbous
Jan 3
Last Quarter
Jan 10
New
Jan 17
First Quarter
Jan 25
Full

Hourly Weather History & Observations

Time (CST) Temp. Windchill Dew Point Humidity Pressure Visibility Wind Dir Wind Speed Gust Speed Precip Events Conditions
12:20 AM 50.0 °F - 44.6 °F 82% 30.37 in 10.0 mi Calm Calm - N/A   Clear
1:00 AM 51.8 °F - 46.4 °F 82% 30.37 in 10.0 mi Calm Calm - N/A   Clear
1:20 AM 51.8 °F - 46.4 °F 82% 30.37 in 10.0 mi SE 3.5 mph - N/A   Clear
2:00 AM 51.8 °F - 46.4 °F 82% 30.37 in 10.0 mi SE 3.5 mph - N/A   Clear
2:20 AM 51.8 °F - 46.4 °F 82% 30.37 in 10.0 mi Calm Calm - N/A   Clear
2:40 AM 50.0 °F - 46.4 °F 87% 30.37 in 10.0 mi Calm Calm - N/A   Clear
3:20 AM 50.0 °F - 46.4 °F 87% 30.37 in 10.0 mi SE 4.6 mph - N/A   Clear
3:40 AM 50.0 °F - 46.4 °F 87% 30.37 in 10.0 mi SE 3.5 mph - N/A   Clear
4:00 AM 42.8 °F - 41.0 °F 93% 30.37 in 4.0 mi Calm Calm - N/A   Clear
4:20 AM 42.8 °F - 41.0 °F 93% 30.38 in 4.0 mi Calm Calm - N/A   Clear
4:40 AM 42.8 °F - 42.8 °F 100% 30.38 in 3.0 mi Calm Calm - N/A   Clear
5:00 AM 42.8 °F - 41.0 °F 93% 30.38 in 2.5 mi Calm Calm - N/A   Clear
5:20 AM 42.8 °F - 42.8 °F 100% 30.38 in 1.8 mi Calm Calm - N/A   Mist
6:20 AM 42.8 °F - 42.8 °F 100% 30.40 in 0.2 mi Calm Calm - N/A Fog Fog
6:40 AM 42.8 °F 41.1 °F 42.8 °F 100% 30.40 in 0.5 mi ESE 3.5 mph - N/A Fog Fog
7:00 AM 46.4 °F - 44.6 °F 93% 30.40 in 4.0 mi Calm Calm - N/A   Clear
7:20 AM 44.6 °F - 44.6 °F 100% 30.41 in 4.0 mi Calm Calm - N/A   Clear
8:00 AM 46.4 °F - 44.6 °F 93% 30.42 in 3.0 mi Calm Calm - N/A   Clear
8:20 AM 51.8 °F - 50.0 °F 94% 30.42 in 10.0 mi SE 3.5 mph - N/A   Clear
8:40 AM 53.6 °F - 50.0 °F 88% 30.42 in 10.0 mi SE 3.5 mph - N/A   Clear
9:00 AM 55.4 °F - 50.0 °F 82% 30.43 in 10.0 mi SE 4.6 mph - N/A   Clear
9:20 AM 59.0 °F - 50.0 °F 72% 30.44 in 10.0 mi SE 9.2 mph - N/A   Clear
9:40 AM 59.0 °F - 50.0 °F 72% 30.44 in 10.0 mi SSE 8.1 mph - N/A   Clear
10:00 AM 59.0 °F - 50.0 °F 72% 30.44 in 10.0 mi SE 6.9 mph - N/A   Clear
10:20 AM 60.8 °F - 50.0 °F 68% 30.43 in 10.0 mi SE 5.8 mph - N/A   Clear
10:40 AM 60.8 °F - 50.0 °F 68% 30.43 in 10.0 mi South 5.8 mph - N/A   Clear
11:00 AM 62.6 °F - 51.8 °F 68% 30.42 in 10.0 mi SE 6.9 mph - N/A   Clear
11:20 AM 62.6 °F - 51.8 °F 68% 30.42 in 10.0 mi South 6.9 mph - N/A   Mostly Cloudy
11:40 AM 64.4 °F - 51.8 °F 64% 30.40 in 10.0 mi South 9.2 mph - N/A   Mostly Cloudy
12:00 PM 64.4 °F - 51.8 °F 64% 30.39 in 10.0 mi South 5.8 mph - N/A   Scattered Clouds
12:20 PM 64.4 °F - 51.8 °F 64% 30.38 in 10.0 mi SSE 6.9 mph - N/A   Clear
12:40 PM 66.2 °F - 51.8 °F 60% 30.37 in 10.0 mi ESE 5.8 mph - N/A   Clear
1:00 PM 68.0 °F - 51.8 °F 56% 30.36 in 10.0 mi SSE 8.1 mph - N/A   Scattered Clouds
1:20 PM 68.0 °F - 51.8 °F 56% 30.36 in 10.0 mi SE 6.9 mph - N/A   Scattered Clouds
2:00 PM 68.0 °F - 51.8 °F 56% 30.35 in 10.0 mi South 8.1 mph - N/A   Clear
2:20 PM 68.0 °F - 51.8 °F 56% 30.35 in 10.0 mi South 6.9 mph - N/A   Clear
2:40 PM 68.0 °F - 51.8 °F 56% 30.34 in 10.0 mi South 8.1 mph - N/A   Clear
3:20 PM 66.2 °F - 51.8 °F 60% 30.34 in 10.0 mi Calm Calm - N/A   Clear
4:00 PM 64.4 °F - 50.0 °F 59% 30.35 in 10.0 mi SSE 4.6 mph - N/A   Scattered Clouds
4:20 PM 64.4 °F - 51.8 °F 64% 30.35 in 10.0 mi SSE 3.5 mph - N/A   Scattered Clouds
4:40 PM 64.4 °F - 50.0 °F 59% 30.35 in 10.0 mi SSE 3.5 mph - N/A   Mostly Cloudy
5:00 PM 62.6 °F - 50.0 °F 63% 30.35 in 10.0 mi SSE 4.6 mph - N/A   Scattered Clouds
5:20 PM 62.6 °F - 50.0 °F 63% 30.35 in 10.0 mi SE 4.6 mph - N/A   Clear
5:36 PM 62.6 °F - 50.0 °F 63% 30.35 in 10.0 mi SSE 4.6 mph - N/A   Clear
6:00 PM 62.6 °F - 50.0 °F 63% 30.36 in 10.0 mi SSE 3.5 mph - N/A   Clear
6:20 PM 60.8 °F - 50.0 °F 68% 30.37 in 10.0 mi Calm Calm - N/A   Clear
6:40 PM 59.0 °F - 50.0 °F 72% 30.37 in 10.0 mi Calm Calm - N/A   Clear
7:00 PM 55.4 °F - 50.0 °F 82% 30.37 in 10.0 mi Calm Calm - N/A   Clear
7:20 PM 53.6 °F - 48.2 °F 82% 30.37 in 10.0 mi Calm Calm - N/A   Scattered Clouds
7:40 PM 53.6 °F - 50.0 °F 88% 30.37 in 10.0 mi Calm Calm - N/A   Mostly Cloudy
8:00 PM 51.8 °F - 48.2 °F 88% 30.38 in 10.0 mi Calm Calm - N/A   Scattered Clouds
8:20 PM 51.8 °F - 50.0 °F 94% 30.38 in 10.0 mi SE 3.5 mph - N/A   Clear
8:40 PM 59.0 °F - 50.0 °F 72% 30.38 in 10.0 mi SSE 4.6 mph - N/A   Scattered Clouds
9:00 PM 60.8 °F - 50.0 °F 68% 30.37 in 10.0 mi SE 4.6 mph - N/A   Mostly Cloudy
9:20 PM 60.8 °F - 51.8 °F 72% 30.37 in 10.0 mi SE 5.8 mph - N/A   Mostly Cloudy
9:40 PM 60.8 °F - 51.8 °F 72% 30.37 in 10.0 mi SSE 6.9 mph - N/A   Mostly Cloudy
10:00 PM 60.8 °F - 50.0 °F 68% 30.37 in 10.0 mi SSE 8.1 mph - N/A   Scattered Clouds
10:40 PM 59.0 °F - 50.0 °F 72% 30.37 in 10.0 mi SE 5.8 mph - N/A   Scattered Clouds
11:00 PM 60.8 °F - 51.8 °F 72% 30.37 in 10.0 mi SSE 4.6 mph - N/A   Mostly Cloudy
11:20 PM 59.0 °F - 51.8 °F 77% 30.36 in 10.0 mi SE 5.8 mph - N/A   Overcast
11:40 PM 60.8 °F - 51.8 °F 72% 30.36 in 10.0 mi SE 3.5 mph - N/A   Overcast